Location: Taupo
(38.6830°S, 176.0830°E)
Time: 10:13:58
(UTC+13:00)

Cosmos 2360 Rocket - Pass Details

Date: 24 January 2019
Orbit: 834 x 845 km, 71.0° (Epoch: 18 February)

Event Time Altitude Azimuth Distance (km) Brightness Sun altitude
Exits shadow 22:43:37 - 335° (NNW) 2,787 4.7 -20.5°
Reaches altitude 10° 22:44:27 10° 335° (NNW) 2,468 4.4 -20.6°
Maximum altitude 22:50:09 80° 247° (WSW) 871 2.3 -21.3°
Drops below altitude 10° 22:55:54 10° 160° (SSE) 2,495 5.0 -22.0°
Sets 22:58:22 0° 158° (SSE) 3,435 5.8 -22.4°
